When you browse on this site, cookies collect data to enhance your experience and personalize the content and advertising you see.
Visit our Privacy Policy to learn more. By continuing to use the site, you agree to this use of cookies and data.
  • In Deutschland
  • Länderverzeichnis
  • Für 7 Tage
  • Wassertemperatur
  • Satellitenkarten
  • Wetterkarte
  • Widgets
  • user-avatar
    Anmelden

    Stündliche Wetter Gomel

    Heute, 16 November, Freitag

    Zeit Temperatur Niederschläge Wind Luftdruck Luftfeuchtigkeit
    00:00 -4°C° 0 mm 2 m/S 766 mmHg 85%
    01:00 -4°C° 0 mm 2 m/S 766 mmHg 84%
    02:00 -5°C° 0 mm 2 m/S 767 mmHg 81%
    03:00 -5°C° 0 mm 2 m/S 767 mmHg 80%
    04:00 -5°C° 0 mm 2 m/S 767 mmHg 79%
    05:00 -5°C° 0 mm 2 m/S 768 mmHg 78%
    06:00 -5°C° 0 mm 2 m/S 768 mmHg 76%
    07:00 -6°C° 0 mm 3 m/S 768 mmHg 75%
    08:00 -6°C° 0 mm 3 m/S 769 mmHg 73%
    09:00 -5°C° 0 mm 3 m/S 769 mmHg 68%
    10:00 -4°C° 0 mm 3 m/S 769 mmHg 63%
    11:00 -1°C° 0 mm 3 m/S 769 mmHg 59%
    12:00 -1°C° 0 mm 3 m/S 769 mmHg 60%
    13:00 0°C° 0 mm 3 m/S 769 mmHg 60%
    14:00 +1°C° 0 mm 2 m/S 769 mmHg 65%
    15:00 -1°C° 0 mm 3 m/S 769 mmHg 69%
    16:00 -2°C° 0 mm 3 m/S 769 mmHg 72%
    17:00 -4°C° 0 mm 3 m/S 769 mmHg 76%
    18:00 -5°C° 0 mm 3 m/S 769 mmHg 74%
    19:00 -5°C° 0 mm 3 m/S 770 mmHg 72%
    20:00 -5°C° 0 mm 3 m/S 770 mmHg 70%
    21:00 -5°C° 0 mm 3 m/S 770 mmHg 69%
    22:00 -6°C° 0 mm 3 m/S 770 mmHg 67%
    23:00 -6°C° 0 mm 3 m/S 770 mmHg 65%

    Morgen, 17 November, Samstag

    Zeit Temperatur Niederschläge Wind Luftdruck Luftfeuchtigkeit
    00:00 -6°C° 0 mm 3 m/S 770 mmHg 64%
    01:00 -6°C° 0 mm 3 m/S 770 mmHg 63%
    02:00 -6°C° 0 mm 3 m/S 770 mmHg 62%
    03:00 -5°C° 0 mm 2 m/S 770 mmHg 61%
    04:00 -5°C° 0 mm 2 m/S 770 mmHg 60%
    05:00 -5°C° 0 mm 2 m/S 769 mmHg 59%
    06:00 -5°C° 0 mm 2 m/S 769 mmHg 59%
    07:00 -5°C° 0 mm 2 m/S 769 mmHg 58%
    08:00 -5°C° 0 mm 2 m/S 769 mmHg 57%
    09:00 -4°C° 0 mm 2 m/S 769 mmHg 54%
    10:00 -2°C° 0 mm 2 m/S 769 mmHg 51%
    11:00 -1°C° 0 mm 2 m/S 769 mmHg 48%
    12:00 -1°C° 0 mm 2 m/S 768 mmHg 50%
    13:00 +2°C° 0 mm 1 m/S 768 mmHg 53%
    14:00 +2°C° 0 mm 1 m/S 768 mmHg 55%
    15:00 +1°C° 0 mm 1 m/S 767 mmHg 56%
    16:00 -1°C° 0 mm 1 m/S 767 mmHg 58%
    17:00 -2°C° 0 mm 1 m/S 766 mmHg 59%
    18:00 -2°C° 0 mm 1 m/S 766 mmHg 59%
    19:00 -2°C° 0 mm 1 m/S 765 mmHg 59%
    20:00 -2°C° 0 mm 1 m/S 765 mmHg 60%
    21:00 -2°C° 0 mm 1 m/S 764 mmHg 59%
    22:00 -2°C° 0 mm 1 m/S 764 mmHg 59%
    23:00 -4°C° 0 mm 2 m/S 763 mmHg 59%

    übermorgen, 18 November, Sonntag

    Zeit Temperatur Niederschläge Wind Luftdruck Luftfeuchtigkeit
    00:00 -4°C° 0 mm 2 m/S 763 mmHg 60%
    01:00 -4°C° 0 mm 2 m/S 762 mmHg 61%
    02:00 -4°C° 0 mm 2 m/S 761 mmHg 62%
    03:00 -5°C° 0 mm 3 m/S 760 mmHg 63%
    04:00 -5°C° 0 mm 3 m/S 759 mmHg 63%
    05:00 -5°C° 0 mm 3 m/S 759 mmHg 63%
    06:00 -4°C° 0 mm 3 m/S 758 mmHg 66%
    07:00 -4°C° 0 mm 3 m/S 757 mmHg 68%
    08:00 -4°C° 0 mm 3 m/S 757 mmHg 71%
    09:00 -2°C° 0.1 mm 3 m/S 756 mmHg 76%
    10:00 -2°C° 0.1 mm 3 m/S 756 mmHg 81%
    11:00 -1°C° 0.1 mm 3 m/S 755 mmHg 87%
    12:00 -1°C° 0.1 mm 3 m/S 755 mmHg 88%
    13:00 -1°C° 0.1 mm 2 m/S 754 mmHg 90%
    14:00 +1°C° 0.1 mm 2 m/S 754 mmHg 91%
    15:00 -1°C° 0 mm 2 m/S 754 mmHg 93%
    16:00 -1°C° 0 mm 2 m/S 753 mmHg 94%
    17:00 -2°C° 0 mm 2 m/S 753 mmHg 96%
    18:00 -2°C° 0 mm 2 m/S 753 mmHg 96%
    19:00 0°C° 0 mm 1 m/S 753 mmHg 96%
    20:00 0°C° 0 mm 1 m/S 752 mmHg 97%
    21:00 +1°C° 0.1 mm 1 m/S 753 mmHg 97%
    22:00 +1°C° 0.1 mm 1 m/S 753 mmHg 97%
    23:00 +1°C° 0.1 mm 1 m/S 753 mmHg 97%

    19 November, Montag

    Zeit Temperatur Niederschläge Wind Luftdruck Luftfeuchtigkeit
    00:00 +1°C° 0.1 mm 1 m/S 753 mmHg 97%
    01:00 +1°C° 0.1 mm 1 m/S 753 mmHg 97%
    02:00 +1°C° 0.1 mm 1 m/S 753 mmHg 97%
    03:00 0°C° 0 mm 1 m/S 753 mmHg 97%
    04:00 0°C° 0 mm 1 m/S 753 mmHg 97%
    05:00 0°C° 0 mm 1 m/S 753 mmHg 97%
    06:00 0°C° 0 mm 1 m/S 754 mmHg 96%
    07:00 0°C° 0 mm 1 m/S 754 mmHg 96%
    08:00 0°C° 0 mm 1 m/S 754 mmHg 95%
    09:00 +1°C° 0 mm 1 m/S 755 mmHg 94%
    10:00 -1°C° 0 mm 2 m/S 755 mmHg 92%
    11:00 +1°C° 0 mm 2 m/S 755 mmHg 91%
    12:00 +1°C° 0 mm 2 m/S 756 mmHg 90%
    13:00 +1°C° 0 mm 2 m/S 756 mmHg 89%
    14:00 +1°C° 0 mm 2 m/S 756 mmHg 89%
    15:00 -1°C° 0 mm 2 m/S 756 mmHg 90%
    16:00 -1°C° 0 mm 2 m/S 756 mmHg 91%
    17:00 -1°C° 0 mm 2 m/S 756 mmHg 92%
    18:00 -2°C° 0.1 mm 2 m/S 756 mmHg 92%
    19:00 -2°C° 0.1 mm 2 m/S 756 mmHg 92%
    20:00 -2°C° 0.1 mm 2 m/S 756 mmHg 92%
    21:00 -3°C° 0 mm 2 m/S 757 mmHg 90%
    22:00 -3°C° 0 mm 2 m/S 757 mmHg 88%
    23:00 -4°C° 0 mm 2 m/S 757 mmHg 86%

    20 November, Dienstag

    Zeit Temperatur Niederschläge Wind Luftdruck Luftfeuchtigkeit
    00:00 -4°C° 0 mm 2 m/S 757 mmHg 84%
    01:00 -5°C° 0 mm 2 m/S 757 mmHg 83%
    02:00 -5°C° 0 mm 2 m/S 757 mmHg 81%
    03:00 -5°C° 0 mm 2 m/S 757 mmHg 81%
    04:00 -5°C° 0 mm 2 m/S 757 mmHg 82%
    05:00 -5°C° 0 mm 2 m/S 757 mmHg 82%
    06:00 -5°C° 0 mm 2 m/S 757 mmHg 83%
    07:00 -4°C° 0 mm 2 m/S 757 mmHg 84%
    08:00 -4°C° 0 mm 2 m/S 756 mmHg 86%
    09:00 -3°C° 0 mm 2 m/S 756 mmHg 86%
    10:00 -2°C° 0 mm 2 m/S 756 mmHg 86%
    11:00 -1°C° 0 mm 2 m/S 756 mmHg 86%
    12:00 -1°C° 0 mm 2 m/S 756 mmHg 87%
    13:00 -1°C° 0 mm 2 m/S 756 mmHg 87%
    14:00 -1°C° 0 mm 2 m/S 755 mmHg 88%
    15:00 -1°C° 0 mm 2 m/S 755 mmHg 90%
    16:00 -1°C° 0 mm 2 m/S 755 mmHg 91%
    17:00 -1°C° 0 mm 2 m/S 755 mmHg 93%
    18:00 -1°C° 0 mm 2 m/S 755 mmHg 94%
    19:00 -1°C° 0 mm 2 m/S 755 mmHg 94%
    20:00 -1°C° 0 mm 2 m/S 755 mmHg 94%
    21:00 -1°C° 0 mm 2 m/S 755 mmHg 94%
    22:00 -1°C° 0 mm 2 m/S 755 mmHg 94%
    23:00 -1°C° 0 mm 2 m/S 755 mmHg 94%

    21 November, Mittwoch

    Zeit Temperatur Niederschläge Wind Luftdruck Luftfeuchtigkeit
    00:00 -1°C° 0 mm 2 m/S 754 mmHg 94%
    01:00 -1°C° 0 mm 3 m/S 754 mmHg 94%
    02:00 -1°C° 0 mm 3 m/S 754 mmHg 93%
    03:00 -1°C° 0 mm 3 m/S 754 mmHg 94%
    04:00 -2°C° 0 mm 4 m/S 754 mmHg 94%
    05:00 -2°C° 0 mm 4 m/S 753 mmHg 94%
    06:00 -2°C° 0 mm 4 m/S 753 mmHg 93%
    07:00 -2°C° 0 mm 5 m/S 753 mmHg 93%
    08:00 -1°C° 0 mm 5 m/S 753 mmHg 92%
    09:00 -1°C° 0.1 mm 5 m/S 753 mmHg 91%
    10:00 -1°C° 0.1 mm 5 m/S 753 mmHg 89%
    11:00 -1°C° 0.1 mm 5 m/S 753 mmHg 88%
    12:00 -2°C° 0.4 mm 6 m/S 752 mmHg 88%
    13:00 -2°C° 0.4 mm 6 m/S 752 mmHg 89%
    14:00 -2°C° 0.4 mm 6 m/S 752 mmHg 89%
    15:00 -2°C° 0.4 mm 6 m/S 752 mmHg 89%
    16:00 -2°C° 0.4 mm 6 m/S 752 mmHg 90%
    17:00 -2°C° 0.4 mm 6 m/S 752 mmHg 90%
    18:00 -2°C° 0.3 mm 6 m/S 752 mmHg 90%
    19:00 -2°C° 0.3 mm 6 m/S 752 mmHg 90%
    20:00 -2°C° 0.3 mm 6 m/S 752 mmHg 90%
    21:00 -2°C° 0.3 mm 6 m/S 752 mmHg 90%
    22:00 -2°C° 0.3 mm 6 m/S 752 mmHg 90%
    23:00 -2°C° 0.3 mm 6 m/S 752 mmHg 90%
    Mehr zeigen